Regional Weather Roundup
Issued by NWS Albany, NY

Home | Current Version | Previous Version | Text Only | Print | Product List | Glossary On
Versions: 1 2 3 4 5 6 7 8 9 10 11 12 13 14 15 16 17 18 19 20 21 22 23 24 25 26 27 28 29 30 31 32 33 34 35 36 37 38 39 40 41 42 43 44 45 46 47 48 49 50
000
ASUS41 KALY 060510
RWRALY

NEW YORK STATE HOURLY WEATHER ROUNDUP
NATIONAL WEATHER SERVICE ALBANY NY
100 AM EDT FRI MAY 06 2016

NOTE: "FAIR" INDICATES FEW OR NO CLOUDS BELOW 12,000 FEET WITH NO
SIGNIFICANT WEATHER AND/OR NO OBSTRUCTIONS TO VISIBILITY.

NYZ032-033-038>043-046>054-057>066-NYZ062>081-082-084-060600-
EAST


CITY           SKY/WX    TMP DP  RH WIND       PRES   REMARKS
ALBANY         CLOUDY    53  45  74 NW5       29.71R
GLENS FALLS    CLOUDY    56  41  57 N9        29.71S
POUGHKEEPSIE   CLOUDY    55  44  66 N7        29.68F
NEWBURGH       CLOUDY    52  46  82 E6        29.70S
MONTGOMERY     CLOUDY    53  46  77 S3        29.68S
WHITE PLAINS   MOCLDY    51  42  71 NE8       29.67F
ISLIP          CLOUDY    49  42  77 NE14      29.66S
NEW YORK CITY  CLOUDY    52  47  83 N17       29.65F
CENTRAL PARK   CLOUDY    52  43  71 VRB7G17   29.68F
$$

NYZ005>009-017-018-044>046-055-056-060600-
CENTRAL


CITY           SKY/WX    TMP DP  RH WIND       PRES   REMARKS
FULTON         PTCLDY    51  42  71 N6        29.77R
SYRACUSE       CLOUDY    54  44  69 N6        29.75R
ROME           CLOUDY    53  43  68 N5        29.75S
ELMIRA         CLOUDY    54  41  61 N8        29.74S
BINGHAMTON     CLOUDY    50  43  77 N6        29.73R
MONTICELLO     CLOUDY    48  45  87 N6        29.70F
$$

NYZ026>034-041>043-087-060600-
NORTH


CITY           SKY/WX    TMP DP  RH WIND       PRES   REMARKS
WATERTOWN      CLEAR     42  39  89 E3        29.78S
FORT DRUM      NOT AVBL
MASSENA        CLEAR     44  37  76 NE3       29.81S
SARANAC LAKE   CLEAR     37  34  89 CALM      29.75F
PLATTSBURGH    PTCLDY    48  39  71 N3        29.78R
$$

NYZ001>004-010>016-019>021-085-060600-
WEST


CITY           SKY/WX    TMP DP  RH WIND       PRES   REMARKS
NIAGARA FALLS  CLEAR     49  42  77 CALM      29.81S
BUFFALO        PTCLDY    49  42  77 NW5       29.81S
DUNKIRK        MOCLDY    43  41  93 SW3       29.83R
JAMESTOWN      CLEAR     46  39  76 N8        29.81R
WELLSVILLE     CLOUDY    47  40  76 NW6       29.78S
ROCHESTER      CLOUDY    50  42  74 N7        29.80S
PENN YAN       CLOUDY    50  42  74 NW8       29.78R
$$

             KEY
       WCI = WIND CHILL INDEX
       VSB = VISIBILITY
       HX  = HEAT INDEX
$$



USA.gov is the U.S. government's official web portal to all federal, state and local government web resources and services.